Time,TemperatureF,DewpointF,PressureIn,WindDirection,WindDirectionDegrees,WindSpeedMPH,WindSpeedGustMPH,Humidity,HourlyPrecipIn,Conditions,Clouds,dailyrainin,SoftwareType,DateUTC
2013-05-22 00:03:00,58.6,38.5,28.74,NNW,331,0.0,0.0,47,0.00,,---,0.00,VWS V14.01,2013-05-22 05:03:00,
2013-05-22 00:09:00,58.3,38.2,28.74,NNW,331,0.0,0.0,47,0.00,,---,0.00,VWS V14.01,2013-05-22 05:09:00,
2013-05-22 00:14:00,58.1,38.0,28.74,NNW,331,0.0,0.0,47,0.00,,---,0.00,VWS V14.01,2013-05-22 05:14:00,
2013-05-22 00:20:00,57.6,38.0,28.74,NNW,331,0.0,0.0,48,0.00,,---,0.00,VWS V14.01,2013-05-22 05:20:00,
2013-05-22 00:26:00,57.2,38.2,28.74,NNW,331,0.0,0.0,49,0.00,,---,0.00,VWS V14.01,2013-05-22 05:26:00,
2013-05-22 00:31:00,57.0,38.6,28.74,NNW,331,0.0,0.0,50,0.00,,---,0.00,VWS V14.01,2013-05-22 05:31:00,
2013-05-22 00:37:00,56.7,38.2,28.77,NNW,331,0.0,0.0,50,0.00,,---,0.00,VWS V14.01,2013-05-22 05:37:00,
2013-05-22 00:43:00,56.5,38.6,28.77,NNW,331,0.0,0.0,51,0.00,,---,0.00,VWS V14.01,2013-05-22 05:43:00,
2013-05-22 00:48:00,56.3,38.4,28.77,NNW,331,0.0,0.0,51,0.00,,---,0.00,VWS V14.01,2013-05-22 05:48:00,
2013-05-22 00:54:00,55.9,38.6,28.77,NNW,331,0.0,0.0,52,0.00,,---,0.00,VWS V14.01,2013-05-22 05:54:00,
2013-05-22 00:59:00,55.8,38.4,28.77,NNW,331,0.0,0.0,52,0.00,,---,0.00,VWS V14.01,2013-05-22 05:59:00,
2013-05-22 01:05:00,55.6,38.7,28.77,NNW,331,0.0,0.0,53,0.00,,---,0.00,VWS V14.01,2013-05-22 06:05:00,
2013-05-22 01:11:00,55.2,38.9,28.77,NNW,331,0.0,0.0,54,0.00,,---,0.00,VWS V14.01,2013-05-22 06:11:00,
2013-05-22 01:16:00,55.2,39.3,28.77,NNW,331,0.0,0.0,55,0.00,,---,0.00,VWS V14.01,2013-05-22 06:16:00,
2013-05-22 01:22:00,55.0,39.2,28.74,NNW,331,0.0,0.0,55,0.00,,---,0.00,VWS V14.01,2013-05-22 06:22:00,
2013-05-22 01:27:00,54.9,39.5,28.74,NNW,331,0.0,0.0,56,0.00,,---,0.00,VWS V14.01,2013-05-22 06:27:00,
2013-05-22 01:32:00,55.0,40.1,28.74,NNW,331,0.0,0.0,57,0.00,,---,0.00,VWS V14.01,2013-05-22 06:32:00,
2013-05-22 01:38:00,55.0,40.1,28.74,NNW,331,0.0,0.0,57,0.00,,---,0.00,VWS V14.01,2013-05-22 06:38:00,
2013-05-22 01:43:00,55.2,40.7,28.74,NNW,331,0.0,0.0,58,0.00,,---,0.00,VWS V14.01,2013-05-22 06:43:00,
2013-05-22 01:49:00,55.4,40.9,28.74,NNW,331,0.0,0.0,58,0.00,,---,0.00,VWS V14.01,2013-05-22 06:49:00,
2013-05-22 01:54:00,55.6,41.0,28.74,NNW,331,0.0,0.0,58,0.00,,---,0.00,VWS V14.01,2013-05-22 06:54:00,
2013-05-22 02:00:00,55.8,41.2,28.74,NNW,331,0.0,0.0,58,0.00,,---,0.00,VWS V14.01,2013-05-22 07:00:00,
2013-05-22 02:05:00,55.9,41.8,28.74,NNW,331,0.0,0.0,59,0.00,,---,0.00,VWS V14.01,2013-05-22 07:05:00,
2013-05-22 02:11:00,56.1,42.0,28.74,NNW,331,0.0,0.0,59,0.00,,---,0.00,VWS V14.01,2013-05-22 07:11:00,
2013-05-22 02:17:00,56.3,42.2,28.74,NNW,331,0.0,0.0,59,0.00,,---,0.00,VWS V14.01,2013-05-22 07:17:00,
2013-05-22 02:22:00,56.3,42.2,28.74,NNW,331,0.0,0.0,59,0.00,,---,0.00,VWS V14.01,2013-05-22 07:22:00,
2013-05-22 02:27:00,56.3,41.7,28.74,NNW,331,0.0,0.0,58,0.00,,---,0.00,VWS V14.01,2013-05-22 07:27:00,
2013-05-22 02:32:00,56.5,41.9,28.74,NNW,331,0.0,0.0,58,0.00,,---,0.00,VWS V14.01,2013-05-22 07:32:00,
2013-05-22 02:37:00,56.7,42.5,28.74,NNW,331,0.0,0.0,59,0.00,,---,0.00,VWS V14.01,2013-05-22 07:37:00,
2013-05-22 02:43:00,56.7,42.5,28.74,NNW,331,0.0,0.0,59,0.00,,---,0.00,VWS V14.01,2013-05-22 07:43:00,
2013-05-22 02:49:00,56.8,42.7,28.74,SW,235,0.0,0.0,59,0.00,,---,0.00,VWS V14.01,2013-05-22 07:49:00,
2013-05-22 02:54:00,56.8,42.7,28.74,West,280,0.0,0.0,59,0.00,,---,0.00,VWS V14.01,2013-05-22 07:54:00,
2013-05-22 03:00:00,56.8,42.7,28.74,SW,219,0.0,0.0,59,0.00,,---,0.00,VWS V14.01,2013-05-22 08:00:00,
2013-05-22 03:05:00,56.8,42.7,28.74,SW,219,0.0,0.0,59,0.00,,---,0.00,VWS V14.01,2013-05-22 08:05:00,
2013-05-22 03:11:00,56.8,42.7,28.74,SW,220,0.0,0.0,59,0.00,,---,0.00,VWS V14.01,2013-05-22 08:11:00,
2013-05-22 03:16:00,56.8,43.1,28.74,SW,219,0.0,0.0,60,0.00,,---,0.00,VWS V14.01,2013-05-22 08:16:00,
2013-05-22 03:21:00,56.8,43.1,28.74,SSW,196,0.0,0.0,60,0.00,,---,0.00,VWS V14.01,2013-05-22 08:21:00,
2013-05-22 03:26:00,57.0,43.3,28.74,SSW,196,0.0,0.0,60,0.00,,---,0.00,VWS V14.01,2013-05-22 08:26:00,
2013-05-22 03:32:00,56.8,43.1,28.74,SSW,196,0.0,0.0,60,0.00,,---,0.00,VWS V14.01,2013-05-22 08:32:00,
2013-05-22 03:37:00,56.8,43.1,28.74,SSW,196,0.0,0.0,60,0.00,,---,0.00,VWS V14.01,2013-05-22 08:37:00,
2013-05-22 03:42:00,56.8,43.1,28.74,SSW,196,0.0,0.0,60,0.00,,---,0.00,VWS V14.01,2013-05-22 08:42:00,
2013-05-22 03:48:00,56.8,43.5,28.74,SSW,196,0.0,0.0,61,0.00,,---,0.00,VWS V14.01,2013-05-22 08:48:00,
2013-05-22 03:53:00,56.8,43.5,28.74,SSW,196,0.0,0.0,61,0.00,,---,0.00,VWS V14.01,2013-05-22 08:53:00,
2013-05-22 03:59:00,56.8,43.5,28.74,SSW,196,0.0,0.0,61,0.00,,---,0.00,VWS V14.01,2013-05-22 08:59:00,
2013-05-22 04:04:00,56.8,43.5,28.74,SSW,196,0.0,0.0,61,0.00,,---,0.00,VWS V14.01,2013-05-22 09:04:00,
2013-05-22 04:09:00,56.7,43.4,28.74,SSW,196,0.0,0.0,61,0.00,,---,0.00,VWS V14.01,2013-05-22 09:09:00,
2013-05-22 04:14:00,56.5,42.8,28.74,SSW,196,0.0,0.0,60,0.00,,---,0.00,VWS V14.01,2013-05-22 09:14:00,
2013-05-22 04:20:00,56.3,43.0,28.74,SSW,196,0.0,0.0,61,0.00,,---,0.00,VWS V14.01,2013-05-22 09:20:00,
2013-05-22 04:25:00,56.3,43.0,28.74,West,273,0.0,0.0,61,0.00,,---,0.00,VWS V14.01,2013-05-22 09:25:00,
2013-05-22 04:31:00,56.3,43.0,28.74,South,190,0.0,0.0,61,0.00,,---,0.00,VWS V14.01,2013-05-22 09:31:00,
2013-05-22 04:37:00,56.3,43.0,28.74,SSE,167,0.0,0.0,61,0.00,,---,0.00,VWS V14.01,2013-05-22 09:37:00,
2013-05-22 04:42:00,56.3,43.0,28.74,SSE,167,0.0,0.0,61,0.00,,---,0.00,VWS V14.01,2013-05-22 09:42:00,
2013-05-22 04:48:00,56.3,43.0,28.74,South,169,0.0,0.0,61,0.00,,---,0.00,VWS V14.01,2013-05-22 09:48:00,
2013-05-22 04:53:00,56.1,42.4,28.74,ENE,57,0.0,0.0,60,0.00,,---,0.00,VWS V14.01,2013-05-22 09:53:00,
2013-05-22 04:59:00,55.8,42.1,28.74,ENE,57,0.0,0.0,60,0.00,,---,0.00,VWS V14.01,2013-05-22 09:59:00,
2013-05-22 05:04:00,55.6,41.9,28.74,ENE,57,0.0,0.0,60,0.00,,---,0.00,VWS V14.01,2013-05-22 10:04:00,
2013-05-22 05:10:00,55.4,42.2,28.74,ENE,57,0.0,0.0,61,0.00,,---,0.00,VWS V14.01,2013-05-22 10:10:00,
2013-05-22 05:16:00,55.2,42.4,28.74,SE,139,0.0,0.0,62,0.00,,---,0.00,VWS V14.01,2013-05-22 10:16:00,
2013-05-22 05:21:00,55.0,42.7,28.77,SSE,148,0.0,0.0,63,0.00,,---,0.00,VWS V14.01,2013-05-22 10:21:00,
2013-05-22 05:27:00,54.7,42.3,28.77,SSE,149,0.0,0.0,63,0.00,,---,0.00,VWS V14.01,2013-05-22 10:27:00,
2013-05-22 05:33:00,54.5,42.6,28.77,SSE,149,0.0,0.0,64,0.00,,---,0.00,VWS V14.01,2013-05-22 10:33:00,
2013-05-22 05:38:00,54.3,42.8,28.77,SSE,168,0.0,0.0,65,0.00,,---,0.00,VWS V14.01,2013-05-22 10:38:00,
2013-05-22 05:43:00,54.1,43.4,28.77,NNW,339,0.0,0.0,67,0.00,,---,0.00,VWS V14.01,2013-05-22 10:43:00,
2013-05-22 05:48:00,54.1,43.8,28.77,South,187,0.0,0.0,68,0.00,,---,0.00,VWS V14.01,2013-05-22 10:48:00,
2013-05-22 05:54:00,54.1,43.8,28.77,SW,236,0.0,0.0,68,0.00,,---,0.00,VWS V14.01,2013-05-22 10:54:00,
2013-05-22 05:59:00,54.0,43.7,28.77,South,183,0.0,0.0,68,0.00,,---,0.00,VWS V14.01,2013-05-22 10:59:00,
2013-05-22 06:05:00,53.8,43.1,28.77,South,184,0.0,0.0,67,0.00,,---,0.00,VWS V14.01,2013-05-22 11:05:00,
2013-05-22 06:10:00,53.4,43.1,28.77,NE,35,0.0,0.0,68,0.00,,---,0.00,VWS V14.01,2013-05-22 11:10:00,
2013-05-22 06:15:00,53.4,43.1,28.77,ESE,110,0.0,0.0,68,0.00,,---,0.00,VWS V14.01,2013-05-22 11:15:00,
2013-05-22 06:20:00,53.2,43.0,28.77,East,97,0.0,0.0,68,0.00,,---,0.00,VWS V14.01,2013-05-22 11:20:00,
2013-05-22 06:26:00,53.1,42.8,28.77,SSW,205,3.1,3.1,68,0.00,,---,0.00,VWS V14.01,2013-05-22 11:26:00,
2013-05-22 06:31:00,52.9,42.6,28.77,ESE,106,0.0,2.7,68,0.00,,---,0.00,VWS V14.01,2013-05-22 11:31:00,
2013-05-22 06:37:00,52.9,42.6,28.77,NE,51,0.0,2.7,68,0.00,,---,0.00,VWS V14.01,2013-05-22 11:37:00,
2013-05-22 06:42:00,52.7,42.5,28.77,ESE,122,0.0,0.0,68,0.00,,---,0.00,VWS V14.01,2013-05-22 11:42:00,
2013-05-22 06:48:00,52.5,41.9,28.77,SSE,158,0.0,0.0,67,0.00,,---,0.00,VWS V14.01,2013-05-22 11:48:00,
2013-05-22 06:53:00,52.7,42.5,28.77,SW,225,4.0,4.0,68,0.00,,---,0.00,VWS V14.01,2013-05-22 11:53:00,
2013-05-22 06:59:00,53.1,43.2,28.77,North,10,0.0,7.6,69,0.00,,---,0.00,VWS V14.01,2013-05-22 11:59:00,
2013-05-22 07:05:00,53.8,43.1,28.79,North,0,0.0,2.2,67,0.00,,---,0.00,VWS V14.01,2013-05-22 12:05:00,
2013-05-22 07:10:00,54.3,42.8,28.79,SE,145,0.0,3.1,65,0.00,,---,0.00,VWS V14.01,2013-05-22 12:10:00,
2013-05-22 07:16:00,55.0,42.3,28.79,WNW,296,5.4,5.4,62,0.00,,---,0.00,VWS V14.01,2013-05-22 12:16:00,
2013-05-22 07:21:00,55.6,41.9,28.79,NNE,21,2.2,2.2,60,0.00,,---,0.00,VWS V14.01,2013-05-22 12:21:00,
2013-05-22 07:27:00,55.9,41.4,28.79,NE,35,3.6,3.6,58,0.00,,---,0.00,VWS V14.01,2013-05-22 12:27:00,
2013-05-22 07:32:00,55.9,41.4,28.79,NNE,24,5.4,5.4,58,0.00,,---,0.00,VWS V14.01,2013-05-22 12:32:00,
2013-05-22 07:37:00,56.7,40.2,28.79,NE,55,2.7,2.7,54,0.00,,---,0.00,VWS V14.01,2013-05-22 12:37:00,
2013-05-22 07:42:00,56.8,39.9,28.79,SE,138,4.0,4.0,53,0.00,,---,0.00,VWS V14.01,2013-05-22 12:42:00,
2013-05-22 07:47:00,57.2,39.8,28.79,NE,37,3.6,3.6,52,0.00,,---,0.00,VWS V14.01,2013-05-22 12:47:00,
2013-05-22 07:53:00,57.7,39.8,28.79,ESE,112,3.1,3.1,51,0.00,,---,0.00,VWS V14.01,2013-05-22 12:53:00,
2013-05-22 07:58:00,57.7,39.8,28.79,NE,55,3.1,3.1,51,0.00,,---,0.00,VWS V14.01,2013-05-22 12:58:00,
2013-05-22 08:04:00,57.2,38.2,28.79,NNE,28,3.1,7.6,49,0.00,,---,0.00,VWS V14.01,2013-05-22 13:04:00,
2013-05-22 08:09:00,57.2,38.8,28.79,NE,53,3.1,4.0,50,0.00,,---,0.00,VWS V14.01,2013-05-22 13:09:00,
2013-05-22 08:15:00,57.6,39.1,28.79,NNE,19,2.2,2.2,50,0.00,,---,0.00,VWS V14.01,2013-05-22 13:15:00,
2013-05-22 08:20:00,58.6,40.1,28.79,NE,56,3.1,3.1,50,0.00,,---,0.00,VWS V14.01,2013-05-22 13:20:00,
2013-05-22 08:26:00,59.0,38.8,28.79,SSE,168,2.7,2.7,47,0.00,,---,0.00,VWS V14.01,2013-05-22 13:26:00,
2013-05-22 08:32:00,59.2,38.4,28.79,WNW,294,7.6,7.6,46,0.00,,---,0.00,VWS V14.01,2013-05-22 13:32:00,
2013-05-22 08:37:00,58.5,37.8,28.79,NE,52,3.6,4.9,46,0.00,,---,0.00,VWS V14.01,2013-05-22 13:37:00,
2013-05-22 08:43:00,58.5,38.3,28.79,NE,48,3.1,3.1,47,0.00,,---,0.00,VWS V14.01,2013-05-22 13:43:00,
2013-05-22 08:48:00,58.5,37.8,28.79,NNW,337,6.7,6.7,46,0.00,,---,0.00,VWS V14.01,2013-05-22 13:48:00,
2013-05-22 08:54:00,58.8,38.1,28.79,NW,317,4.0,5.4,46,0.00,,---,0.00,VWS V14.01,2013-05-22 13:54:00,
2013-05-22 08:59:00,58.8,38.1,28.79,SE,138,3.6,5.4,46,0.00,,---,0.00,VWS V14.01,2013-05-22 13:59:00,
2013-05-22 09:04:00,59.4,38.0,28.82,NE,38,3.6,3.6,45,0.00,,---,0.00,VWS V14.01,2013-05-22 14:04:00,
2013-05-22 09:09:00,59.4,38.0,28.82,SSE,147,4.9,4.9,45,0.00,,---,0.00,VWS V14.01,2013-05-22 14:09:00,
2013-05-22 09:15:00,59.7,38.4,28.82,WSW,241,3.1,3.1,45,0.00,,---,0.00,VWS V14.01,2013-05-22 14:15:00,
2013-05-22 09:21:00,59.9,38.0,28.82,ENE,63,2.7,5.4,44,0.00,,---,0.00,VWS V14.01,2013-05-22 14:21:00,
2013-05-22 09:26:00,59.9,38.0,28.82,ENE,77,3.1,3.1,44,0.00,,---,0.00,VWS V14.01,2013-05-22 14:26:00,
2013-05-22 09:32:00,59.9,38.0,28.82,NE,37,2.7,2.7,44,0.00,,---,0.00,VWS V14.01,2013-05-22 14:32:00,
2013-05-22 09:37:00,60.6,38.6,28.79,NE,45,3.1,3.1,44,0.00,,---,0.00,VWS V14.01,2013-05-22 14:37:00,
2013-05-22 09:43:00,60.6,38.6,28.79,NW,313,4.0,4.0,44,0.00,,---,0.00,VWS V14.01,2013-05-22 14:43:00,
2013-05-22 09:49:00,61.2,37.9,28.82,NE,34,0.0,0.0,42,0.00,,---,0.00,VWS V14.01,2013-05-22 14:49:00,
2013-05-22 09:54:00,61.2,37.9,28.82,SE,129,2.2,2.2,42,0.00,,---,0.00,VWS V14.01,2013-05-22 14:54:00,
2013-05-22 10:00:00,63.5,40.0,28.82,NE,42,4.0,4.0,42,0.00,,---,0.00,VWS V14.01,2013-05-22 15:00:00,
2013-05-22 10:05:00,64.2,40.0,28.82,East,92,2.7,2.7,41,0.00,,---,0.00,VWS V14.01,2013-05-22 15:05:00,
2013-05-22 10:11:00,64.9,38.8,28.82,ENE,69,0.0,0.0,38,0.00,,---,0.00,VWS V14.01,2013-05-22 15:11:00,
2013-05-22 10:16:00,65.3,39.1,28.82,ESE,106,3.6,3.6,38,0.00,,---,0.00,VWS V14.01,2013-05-22 15:16:00,
2013-05-22 10:21:00,65.3,39.1,28.82,North,10,5.4,5.4,38,0.00,,---,0.00,VWS V14.01,2013-05-22 15:21:00,
2013-05-22 10:27:00,64.6,37.0,28.82,NNW,327,3.1,3.1,36,0.00,,---,0.00,VWS V14.01,2013-05-22 15:27:00,
2013-05-22 10:32:00,64.6,37.0,28.82,NE,34,0.0,0.0,36,0.00,,---,0.00,VWS V14.01,2013-05-22 15:32:00,
2013-05-22 10:38:00,64.8,37.2,28.82,SE,143,2.7,2.7,36,0.00,,---,0.00,VWS V14.01,2013-05-22 15:38:00,
2013-05-22 10:43:00,64.8,37.2,28.82,ESE,110,0.0,0.0,36,0.00,,---,0.00,VWS V14.01,2013-05-22 15:43:00,
2013-05-22 10:49:00,65.8,39.5,28.82,North,353,2.7,2.7,38,0.00,,---,0.00,VWS V14.01,2013-05-22 15:49:00,
2013-05-22 10:54:00,66.0,37.6,28.82,ENE,60,2.7,4.0,35,0.00,,---,0.00,VWS V14.01,2013-05-22 15:54:00,
2013-05-22 11:00:00,66.4,38.6,28.82,NW,307,2.7,5.4,36,0.00,,---,0.00,VWS V14.01,2013-05-22 16:00:00,
2013-05-22 11:06:00,68.0,38.6,28.82,NE,37,5.8,5.8,34,0.00,,---,0.00,VWS V14.01,2013-05-22 16:06:00,
2013-05-22 11:11:00,68.4,38.2,28.82,North,353,3.6,3.6,33,0.00,,---,0.00,VWS V14.01,2013-05-22 16:11:00,
2013-05-22 11:17:00,68.4,38.2,28.82,NNE,29,5.8,5.8,33,0.00,,---,0.00,VWS V14.01,2013-05-22 16:17:00,
2013-05-22 11:23:00,68.5,38.3,28.82,NNE,22,3.1,3.1,33,0.00,,---,0.00,VWS V14.01,2013-05-22 16:23:00,
2013-05-22 11:28:00,68.4,38.2,28.82,ENE,58,0.0,2.7,33,0.00,,---,0.00,VWS V14.01,2013-05-22 16:28:00,
2013-05-22 11:34:00,68.2,38.8,28.82,SSE,166,2.7,3.6,34,0.00,,---,0.00,VWS V14.01,2013-05-22 16:34:00,
2013-05-22 11:39:00,68.2,38.8,28.82,ENE,71,3.6,3.6,34,0.00,,---,0.00,VWS V14.01,2013-05-22 16:39:00,
2013-05-22 11:45:00,68.4,38.2,28.82,NNE,16,3.6,3.6,33,0.00,,---,0.00,VWS V14.01,2013-05-22 16:45:00,
2013-05-22 11:50:00,68.2,38.0,28.85,North,9,3.6,4.0,33,0.00,,---,0.00,VWS V14.01,2013-05-22 16:50:00,
2013-05-22 11:56:00,67.8,38.5,28.85,SSE,154,3.6,3.6,34,0.00,,---,0.00,VWS V14.01,2013-05-22 16:56:00,
2013-05-22 12:02:00,67.8,37.7,28.85,ESE,103,3.6,3.6,33,0.00,,---,0.00,VWS V14.01,2013-05-22 17:02:00,
2013-05-22 12:07:00,68.0,37.8,28.85,East,100,0.0,5.8,33,0.00,,---,0.00,VWS V14.01,2013-05-22 17:07:00,
2013-05-22 12:13:00,68.0,37.8,28.85,ENE,69,3.1,5.8,33,0.00,,---,0.00,VWS V14.01,2013-05-22 17:13:00,
2013-05-22 12:19:00,68.7,38.5,28.85,NNW,329,2.2,2.2,33,0.00,,---,0.00,VWS V14.01,2013-05-22 17:19:00,
2013-05-22 12:24:00,69.1,38.8,28.85,SSE,162,0.0,3.6,33,0.00,,---,0.00,VWS V14.01,2013-05-22 17:24:00,
2013-05-22 12:30:00,69.1,38.8,28.85,North,10,4.0,4.0,33,0.00,,---,0.00,VWS V14.01,2013-05-22 17:30:00,
2013-05-22 12:35:00,69.1,38.8,28.85,NE,48,4.0,4.0,33,0.00,,---,0.00,VWS V14.01,2013-05-22 17:35:00,
2013-05-22 12:41:00,71.1,39.7,28.85,North,11,4.0,4.0,32,0.00,,---,0.00,VWS V14.01,2013-05-22 17:41:00,
2013-05-22 12:47:00,71.4,40.0,28.85,ESE,117,3.1,3.1,32,0.00,,---,0.00,VWS V14.01,2013-05-22 17:47:00,
2013-05-22 12:52:00,72.0,40.5,28.85,SSW,196,2.7,3.6,32,0.00,,---,0.00,VWS V14.01,2013-05-22 17:52:00,
2013-05-22 12:58:00,72.5,41.0,28.85,West,277,3.6,3.6,32,0.00,,---,0.00,VWS V14.01,2013-05-22 17:58:00,
2013-05-22 13:04:00,73.9,39.7,28.85,NNE,26,4.0,5.4,29,0.00,,---,0.00,VWS V14.01,2013-05-22 18:04:00,
2013-05-22 13:09:00,73.9,39.7,28.85,SE,124,4.0,4.0,29,0.00,,---,0.00,VWS V14.01,2013-05-22 18:09:00,
2013-05-22 13:15:00,73.9,39.7,28.85,SW,220,2.7,5.4,29,0.00,,---,0.00,VWS V14.01,2013-05-22 18:15:00,
2013-05-22 13:20:00,73.8,39.5,28.85,NNW,343,4.0,4.0,29,0.00,,---,0.00,VWS V14.01,2013-05-22 18:20:00,
2013-05-22 13:26:00,73.2,39.1,28.85,NE,43,3.1,3.1,29,0.00,,---,0.00,VWS V14.01,2013-05-22 18:26:00,
2013-05-22 13:31:00,73.0,38.9,28.85,WNW,285,2.7,2.7,29,0.00,,---,0.00,VWS V14.01,2013-05-22 18:31:00,
2013-05-22 13:37:00,72.5,38.5,28.85,SE,128,4.0,4.0,29,0.00,,---,0.00,VWS V14.01,2013-05-22 18:37:00,
2013-05-22 13:43:00,71.6,38.6,28.85,North,357,4.0,4.0,30,0.00,,---,0.00,VWS V14.01,2013-05-22 18:43:00,
2013-05-22 13:48:00,71.6,38.6,28.85,SSW,203,2.2,4.0,30,0.00,,---,0.00,VWS V14.01,2013-05-22 18:48:00,
2013-05-22 13:54:00,71.6,38.6,28.85,NNE,23,6.3,6.3,30,0.00,,---,0.00,VWS V14.01,2013-05-22 18:54:00,
2013-05-22 13:59:00,71.8,37.8,28.85,NW,306,4.9,5.4,29,0.00,,---,0.00,VWS V14.01,2013-05-22 18:59:00,
2013-05-22 14:05:00,71.6,38.6,28.85,NNE,19,3.1,3.1,30,0.00,,---,0.00,VWS V14.01,2013-05-22 19:05:00,
2013-05-22 14:10:00,71.6,38.6,28.85,North,0,4.9,6.7,30,0.00,,---,0.00,VWS V14.01,2013-05-22 19:10:00,
2013-05-22 14:16:00,71.6,39.4,28.85,NNE,33,3.1,3.1,31,0.00,,---,0.00,VWS V14.01,2013-05-22 19:16:00,
2013-05-22 14:22:00,72.1,38.2,28.85,SSW,195,3.1,3.1,29,0.00,,---,0.00,VWS V14.01,2013-05-22 19:22:00,
2013-05-22 14:27:00,72.1,38.2,28.85,NW,320,2.2,4.0,29,0.00,,---,0.00,VWS V14.01,2013-05-22 19:27:00,
2013-05-22 14:33:00,72.7,38.6,28.85,NNE,19,2.2,2.2,29,0.00,,---,0.00,VWS V14.01,2013-05-22 19:33:00,
2013-05-22 14:38:00,73.0,38.9,28.85,SSE,164,3.6,3.6,29,0.00,,---,0.00,VWS V14.01,2013-05-22 19:38:00,
2013-05-22 14:43:00,73.2,38.2,28.85,ENE,61,3.1,3.1,28,0.00,,---,0.00,VWS V14.01,2013-05-22 19:43:00,
2013-05-22 14:48:00,73.9,39.7,28.85,SW,223,2.2,3.6,29,0.00,,---,0.00,VWS V14.01,2013-05-22 19:48:00,
2013-05-22 14:54:00,73.9,39.7,28.82,North,7,3.1,3.1,29,0.00,,---,0.00,VWS V14.01,2013-05-22 19:54:00,
2013-05-22 15:00:00,75.4,39.1,28.82,SSW,201,3.1,3.1,27,0.00,,---,0.00,VWS V14.01,2013-05-22 20:00:00,
2013-05-22 15:05:00,75.6,38.3,28.82,SE,127,3.1,3.1,26,0.00,,---,0.00,VWS V14.01,2013-05-22 20:05:00,
2013-05-22 15:11:00,75.2,38.0,28.82,SE,127,2.2,2.2,26,0.00,,---,0.00,VWS V14.01,2013-05-22 20:11:00,
2013-05-22 15:16:00,75.9,39.6,28.82,SE,145,0.0,3.6,27,0.00,,---,0.00,VWS V14.01,2013-05-22 20:16:00,
2013-05-22 15:22:00,76.8,39.4,28.82,South,176,0.0,0.0,26,0.00,,---,0.00,VWS V14.01,2013-05-22 20:22:00,
2013-05-22 15:28:00,75.6,38.3,28.82,SE,144,2.7,2.7,26,0.00,,---,0.00,VWS V14.01,2013-05-22 20:28:00,
2013-05-22 15:33:00,75.6,38.3,28.82,SE,140,3.6,3.6,26,0.00,,---,0.00,VWS V14.01,2013-05-22 20:33:00,
2013-05-22 15:38:00,74.8,38.7,28.82,SE,131,2.7,2.7,27,0.00,,---,0.00,VWS V14.01,2013-05-22 20:38:00,
2013-05-22 15:43:00,75.2,39.0,28.82,NE,42,4.9,4.9,27,0.00,,---,0.00,VWS V14.01,2013-05-22 20:43:00,
2013-05-22 15:49:00,74.8,38.7,28.82,NE,40,2.2,2.2,27,0.00,,---,0.00,VWS V14.01,2013-05-22 20:49:00,
2013-05-22 15:54:00,74.7,38.5,28.82,SSW,196,2.7,2.7,27,0.00,,---,0.00,VWS V14.01,2013-05-22 20:54:00,
2013-05-22 16:00:00,74.7,37.5,28.82,West,277,2.7,2.7,26,0.00,,---,0.00,VWS V14.01,2013-05-22 21:00:00,
2013-05-22 16:05:00,74.5,39.3,28.82,South,174,0.0,0.0,28,0.00,,---,0.00,VWS V14.01,2013-05-22 21:05:00,
2013-05-22 16:11:00,75.7,40.3,28.82,NNW,334,0.0,0.0,28,0.00,,---,0.00,VWS V14.01,2013-05-22 21:11:00,
2013-05-22 16:16:00,76.3,38.9,28.82,East,81,2.2,5.8,26,0.00,,---,0.00,VWS V14.01,2013-05-22 21:16:00,
2013-05-22 16:21:00,75.9,39.6,28.82,NE,35,0.0,0.0,27,0.00,,---,0.00,VWS V14.01,2013-05-22 21:21:00,
2013-05-22 16:27:00,76.1,39.7,28.82,East,88,4.0,4.0,27,0.00,,---,0.00,VWS V14.01,2013-05-22 21:27:00,
2013-05-22 16:32:00,75.4,37.2,28.82,WSW,240,3.1,3.1,25,0.00,,---,0.00,VWS V14.01,2013-05-22 21:32:00,
2013-05-22 16:38:00,75.4,39.1,28.82,NE,35,3.6,3.6,27,0.00,,---,0.00,VWS V14.01,2013-05-22 21:38:00,
2013-05-22 16:43:00,76.3,38.9,28.82,East,85,0.0,0.0,26,0.00,,---,0.00,VWS V14.01,2013-05-22 21:43:00,
2013-05-22 16:49:00,75.9,38.6,28.82,North,357,0.0,0.0,26,0.00,,---,0.00,VWS V14.01,2013-05-22 21:49:00,
2013-05-22 16:54:00,75.9,38.6,28.82,ESE,123,2.7,2.7,26,0.00,,---,0.00,VWS V14.01,2013-05-22 21:54:00,
2013-05-22 17:00:00,75.7,39.4,28.82,WSW,251,0.0,0.0,27,0.00,,---,0.00,VWS V14.01,2013-05-22 22:00:00,
2013-05-22 17:06:00,77.0,38.5,28.82,NE,49,3.6,3.6,25,0.00,,---,0.00,VWS V14.01,2013-05-22 22:06:00,
2013-05-22 17:11:00,77.2,37.6,28.82,SSW,197,2.7,4.0,24,0.00,,---,0.00,VWS V14.01,2013-05-22 22:11:00,
2013-05-22 17:17:00,77.4,37.8,28.82,SSE,156,0.0,0.0,24,0.00,,---,0.00,VWS V14.01,2013-05-22 22:17:00,
2013-05-22 17:23:00,76.5,38.1,28.82,SSE,155,2.2,2.2,25,0.00,,---,0.00,VWS V14.01,2013-05-22 22:23:00,
2013-05-22 17:28:00,76.3,37.9,28.82,NNE,29,2.2,2.2,25,0.00,,---,0.00,VWS V14.01,2013-05-22 22:28:00,
2013-05-22 17:34:00,76.1,37.8,28.82,NNE,25,0.0,0.0,25,0.00,,---,0.00,VWS V14.01,2013-05-22 22:34:00,
2013-05-22 17:39:00,75.6,37.3,28.82,North,357,4.9,4.9,25,0.00,,---,0.00,VWS V14.01,2013-05-22 22:39:00,
2013-05-22 17:44:00,75.9,37.6,28.82,SSW,209,0.0,0.0,25,0.00,,---,0.00,VWS V14.01,2013-05-22 22:44:00,
2013-05-22 17:49:00,76.5,38.1,28.82,NW,315,2.7,2.7,25,0.00,,---,0.00,VWS V14.01,2013-05-22 22:49:00,
2013-05-22 17:55:00,76.6,38.2,28.82,SSE,147,2.2,2.2,25,0.00,,---,0.00,VWS V14.01,2013-05-22 22:55:00,
2013-05-22 18:00:00,75.2,37.0,28.82,SW,220,3.6,3.6,25,0.00,,---,0.00,VWS V14.01,2013-05-22 23:00:00,
2013-05-22 18:06:00,74.1,37.1,28.82,SSW,193,0.0,0.0,26,0.00,,---,0.00,VWS V14.01,2013-05-22 23:06:00,
2013-05-22 18:12:00,72.9,37.0,28.82,SSW,201,3.6,3.6,27,0.00,,---,0.00,VWS V14.01,2013-05-22 23:12:00,
2013-05-22 18:17:00,72.5,36.7,28.82,NW,324,0.0,0.0,27,0.00,,---,0.00,VWS V14.01,2013-05-22 23:17:00,
2013-05-22 18:23:00,71.8,37.0,28.82,South,186,0.0,0.0,28,0.00,,---,0.00,VWS V14.01,2013-05-22 23:23:00,
2013-05-22 18:28:00,71.6,38.6,28.82,ENE,58,0.0,0.0,30,0.00,,---,0.00,VWS V14.01,2013-05-22 23:28:00,
2013-05-22 18:33:00,71.2,37.4,28.82,NE,43,2.2,2.2,29,0.00,,---,0.00,VWS V14.01,2013-05-22 23:33:00,
2013-05-22 18:38:00,71.2,37.4,28.82,SSE,159,3.1,3.1,29,0.00,,---,0.00,VWS V14.01,2013-05-22 23:38:00,
2013-05-22 18:44:00,70.7,38.6,28.82,ENE,72,0.0,0.0,31,0.00,,---,0.00,VWS V14.01,2013-05-22 23:44:00,
2013-05-22 18:49:00,70.7,39.4,28.82,SSE,155,0.0,0.0,32,0.00,,---,0.00,VWS V14.01,2013-05-22 23:49:00,
2013-05-22 18:55:00,70.9,39.6,28.82,East,100,0.0,7.2,32,0.00,,---,0.00,VWS V14.01,2013-05-22 23:55:00,
2013-05-22 19:00:00,70.3,39.1,28.82,NE,46,2.2,2.2,32,0.00,,---,0.00,VWS V14.01,2013-05-23 00:00:00,
2013-05-22 19:06:00,70.2,39.0,28.82,NNE,28,0.0,0.0,32,0.00,,---,0.00,VWS V14.01,2013-05-23 00:06:00,
2013-05-22 19:12:00,70.0,38.8,28.82,ENE,61,0.0,0.0,32,0.00,,---,0.00,VWS V14.01,2013-05-23 00:12:00,
2013-05-22 19:17:00,70.0,38.8,28.82,SSW,193,0.0,0.0,32,0.00,,---,0.00,VWS V14.01,2013-05-23 00:17:00,
2013-05-22 19:22:00,69.8,38.6,28.82,NNW,346,0.0,0.0,32,0.00,,---,0.00,VWS V14.01,2013-05-23 00:22:00,
2013-05-22 19:27:00,69.6,39.3,28.82,NW,305,0.0,0.0,33,0.00,,---,0.00,VWS V14.01,2013-05-23 00:27:00,
2013-05-22 19:33:00,69.6,39.3,28.82,ESE,110,0.0,0.0,33,0.00,,---,0.00,VWS V14.01,2013-05-23 00:33:00,
2013-05-22 19:38:00,69.6,39.3,28.85,ESE,110,0.0,0.0,33,0.00,,---,0.00,VWS V14.01,2013-05-23 00:38:00,
2013-05-22 19:43:00,69.4,39.1,28.85,North,353,0.0,0.0,33,0.00,,---,0.00,VWS V14.01,2013-05-23 00:43:00,
2013-05-22 19:48:00,69.4,39.1,28.85,NNW,339,0.0,0.0,33,0.00,,---,0.00,VWS V14.01,2013-05-23 00:48:00,
2013-05-22 19:53:00,69.3,39.0,28.85,NE,53,0.0,0.0,33,0.00,,---,0.00,VWS V14.01,2013-05-23 00:53:00,
2013-05-22 19:59:00,68.7,39.2,28.85,NNE,21,0.0,0.0,34,0.00,,---,0.00,VWS V14.01,2013-05-23 00:59:00,
2013-05-22 20:04:00,68.5,39.1,28.85,NNE,28,0.0,0.0,34,0.00,,---,0.00,VWS V14.01,2013-05-23 01:04:00,
2013-05-22 20:10:00,68.4,38.9,28.85,North,1,0.0,0.0,34,0.00,,---,0.00,VWS V14.01,2013-05-23 01:10:00,
2013-05-22 20:15:00,67.8,38.5,28.85,SE,124,0.0,0.0,34,0.00,,---,0.00,VWS V14.01,2013-05-23 01:15:00,
2013-05-22 20:20:00,67.3,38.0,28.85,North,11,0.0,0.0,34,0.00,,---,0.00,VWS V14.01,2013-05-23 01:20:00,
2013-05-22 20:26:00,66.9,38.4,28.85,NNE,28,0.0,0.0,35,0.00,,---,0.00,VWS V14.01,2013-05-23 01:26:00,
2013-05-22 20:32:00,66.4,38.6,28.85,NE,37,0.0,0.0,36,0.00,,---,0.00,VWS V14.01,2013-05-23 01:32:00,
2013-05-22 20:38:00,66.4,38.6,28.88,SW,223,0.0,0.0,36,0.00,,---,0.00,VWS V14.01,2013-05-23 01:38:00,
2013-05-22 20:44:00,66.0,39.0,28.88,NE,56,0.0,0.0,37,0.00,,---,0.00,VWS V14.01,2013-05-23 01:44:00,
2013-05-22 20:49:00,65.8,38.9,28.88,SSE,156,0.0,0.0,37,0.00,,---,0.00,VWS V14.01,2013-05-23 01:49:00,
2013-05-22 20:54:00,65.8,38.9,28.88,North,3,0.0,0.0,37,0.00,,---,0.00,VWS V14.01,2013-05-23 01:54:00,
2013-05-22 21:00:00,65.5,38.5,28.88,ENE,60,0.0,0.0,37,0.00,,---,0.00,VWS V14.01,2013-05-23 02:00:00,
2013-05-22 21:05:00,64.9,38.1,28.88,ESE,110,0.0,0.0,37,0.00,,---,0.00,VWS V14.01,2013-05-23 02:05:00,
2013-05-22 21:11:00,64.8,38.6,28.88,NNE,24,0.0,0.0,38,0.00,,---,0.00,VWS V14.01,2013-05-23 02:11:00,
2013-05-22 21:16:00,64.2,38.1,28.88,NNE,24,0.0,0.0,38,0.00,,---,0.00,VWS V14.01,2013-05-23 02:16:00,
2013-05-22 21:21:00,64.2,38.8,28.88,NNE,24,0.0,0.0,39,0.00,,---,0.00,VWS V14.01,2013-05-23 02:21:00,
2013-05-22 21:26:00,63.5,38.1,28.88,North,357,0.0,0.0,39,0.00,,---,0.00,VWS V14.01,2013-05-23 02:26:00,
2013-05-22 21:32:00,63.1,38.5,28.88,North,357,0.0,0.0,40,0.00,,---,0.00,VWS V14.01,2013-05-23 02:32:00,
2013-05-22 21:37:00,63.1,38.5,28.88,North,357,0.0,0.0,40,0.00,,---,0.00,VWS V14.01,2013-05-23 02:37:00,
2013-05-22 21:43:00,62.6,38.6,28.88,North,357,0.0,0.0,41,0.00,,---,0.00,VWS V14.01,2013-05-23 02:43:00,
2013-05-22 21:49:00,62.6,38.6,28.91,North,357,0.0,0.0,41,0.00,,---,0.00,VWS V14.01,2013-05-23 02:49:00,
2013-05-22 21:54:00,62.1,39.3,28.91,ENE,62,0.0,0.0,43,0.00,,---,0.00,VWS V14.01,2013-05-23 02:54:00,
2013-05-22 22:00:00,61.7,39.0,28.91,ENE,62,0.0,0.0,43,0.00,,---,0.00,VWS V14.01,2013-05-23 03:00:00,
2013-05-22 22:05:00,61.5,39.4,28.91,ENE,62,0.0,0.0,44,0.00,,---,0.00,VWS V14.01,2013-05-23 03:05:00,
2013-05-22 22:11:00,61.0,38.9,28.91,ENE,62,0.0,0.0,44,0.00,,---,0.00,VWS V14.01,2013-05-23 03:11:00,
2013-05-22 22:17:00,61.0,38.9,28.91,ENE,62,0.0,0.0,44,0.00,,---,0.00,VWS V14.01,2013-05-23 03:17:00,
2013-05-22 22:22:00,61.0,38.9,28.91,ENE,62,0.0,0.0,44,0.00,,---,0.00,VWS V14.01,2013-05-23 03:22:00,
2013-05-22 22:28:00,60.1,39.2,28.91,ENE,62,0.0,0.0,46,0.00,,---,0.00,VWS V14.01,2013-05-23 03:28:00,
2013-05-22 22:33:00,59.7,40.0,28.91,ENE,62,0.0,0.0,48,0.00,,---,0.00,VWS V14.01,2013-05-23 03:33:00,
2013-05-22 22:39:00,59.7,40.0,28.91,NNE,18,0.0,0.0,48,0.00,,---,0.00,VWS V14.01,2013-05-23 03:39:00,
2013-05-22 22:44:00,59.7,40.0,28.91,NNE,18,0.0,0.0,48,0.00,,---,0.00,VWS V14.01,2013-05-23 03:44:00,
2013-05-22 22:50:00,59.5,40.4,28.94,NNE,18,0.0,0.0,49,0.00,,---,0.00,VWS V14.01,2013-05-23 03:50:00,
2013-05-22 22:55:00,59.4,40.2,28.94,NNE,14,0.0,0.0,49,0.00,,---,0.00,VWS V14.01,2013-05-23 03:55:00,
2013-05-22 23:01:00,59.4,41.2,28.94,North,1,0.0,0.0,51,0.00,,---,0.00,VWS V14.01,2013-05-23 04:01:00,
2013-05-22 23:03:00,59.4,41.2,28.94,NE,42,0.0,2.7,51,0.00,,---,0.00,VWS V14.01,2013-05-23 04:03:00,
2013-05-22 23:04:00,59.4,41.2,28.94,North,9,0.0,0.0,51,0.00,,---,0.00,VWS V14.01,2013-05-23 04:04:00,
2013-05-22 23:05:00,59.4,41.2,28.94,North,9,0.0,0.0,51,0.00,,---,0.00,VWS V14.01,2013-05-23 04:05:00,
2013-05-22 23:11:00,59.4,41.2,28.94,NW,321,0.0,0.0,51,0.00,,---,0.00,VWS V14.01,2013-05-23 04:11:00,
2013-05-22 23:16:00,59.5,41.4,28.94,NNE,19,0.0,0.0,51,0.00,,---,0.00,VWS V14.01,2013-05-23 04:16:00,
2013-05-22 23:19:00,59.5,41.4,28.94,NNE,23,0.0,0.0,51,0.00,,---,0.00,VWS V14.01,2013-05-23 04:19:00,
2013-05-22 23:25:00,59.2,41.1,28.94,NNW,334,0.0,0.0,51,0.00,,---,0.00,VWS V14.01,2013-05-23 04:25:00,
2013-05-22 23:30:00,59.2,41.1,28.94,NNW,334,0.0,0.0,51,0.00,,---,0.00,VWS V14.01,2013-05-23 04:30:00,
2013-05-22 23:36:00,59.2,41.1,28.94,NNW,334,0.0,0.0,51,0.00,,---,0.00,VWS V14.01,2013-05-23 04:36:00,
2013-05-22 23:41:00,58.3,40.8,28.94,NNW,334,0.0,0.0,52,0.00,,---,0.00,VWS V14.01,2013-05-23 04:41:00,
2013-05-22 23:47:00,58.3,40.8,28.94,NNW,334,0.0,0.0,52,0.00,,---,0.00,VWS V14.01,2013-05-23 04:47:00,
2013-05-22 23:52:00,57.9,40.4,28.94,NNW,334,0.0,0.0,52,0.00,,---,0.00,VWS V14.01,2013-05-23 04:52:00,
2013-05-22 23:57:00,57.7,40.2,28.94,NNW,334,0.0,0.0,52,0.00,,---,0.00,VWS V14.01,2013-05-23 04:57:00,